Back to catalog

STARLINK-35435

AliveCommunicationsVLEO
NORAD 66464·PAYLOAD·🇺🇸 United States

Launched Nov 15, 2025 from Cape Canaveral Space Force Station

Loading…

Next Passes (next 24 hours)

TLE

FreshSource: CelesTrak SupGP

Epoch: Sep 15, 2026, 03:02 UTC

1 66464C 25262J   26258.12687500  .00036109  00000+0  13073-2 0  2587
2 66464  43.0031 305.9240 0001872 272.8142  67.5098 15.27573453    14

Track STARLINK-35435 in real time with AllMySat

Download on the App Store